Вернуться в каталог

DELTA 1 DEB

АктивенSSO
NORAD 10843·DEBRIS·🇺🇸 United States

Запущен Jul 29, 1976 с Vandenberg Space Force Base

Loading…

Ближайшие Пролёты (ближайшие 24 часа)

TLE

СвежийSource: Space-Track

Эпоха: Sep 14, 2026, 10:11 UTC

1 10843U 76077CP  26257.42475853 -.00000013  00000-0  18058-3 0  9993
2 10843 101.7266 228.0517 0117370 114.4854  36.3872 12.58581684300462

Отслеживайте DELTA 1 DEB в реальном времени с AllMySat

Download on the App Store